Weather History for Omak, WA

Change the Weather History Date:

Wednesday, April 10, 2013

  Actual Average Record
Temperature  
Mean Temperature 53 °F 49 °F  
Max Temperature 67 °F 62 °F 79 °F (1934)
Min Temperature 38 °F 36 °F 21 °F (1954)
Degree Days  
Heating Degree Days 12 16  
Month to date heating degree days 132 170  
Since 1 July heating degree days 5465 5760  
Cooling Degree Days 0 0  
Month to date cooling degree days 0 0  
Year to date cooling degree days 0 0  
Growing Degree Days 6 (Base 50)    
Moisture  
Dew Point 34 °F    
Average Humidity 45    
Maximum Humidity 65    
Minimum Humidity 24    
Precipitation  
Precipitation T in 0.03 in 0.60 in (1941)
Month to date precipitation 0.90 0.34  
Year to date precipitation 2.46 4.50  
Sea Level Pressure  
Sea Level Pressure 29.94 in    
Wind  
Wind Speed 10 mph (SW)    
Max Wind Speed 26 mph    
Max Gust Speed 40 mph    
Visibility 10 miles    
Events Rain    
T = Trace of Precipitation, MM = Missing Value Source: NWS Daily Summary

Daily Weather History Graph

Daily Weather History Graph

Search for Another Location

Airport:

Trip Planner

Search our weather history database for the weather conditions in past years. The results will help you decide how hot, cold, wet, or windy it might be!

Date:

Astronomy

Apr. 10, 2013 Rise Set
Actual Time 6:17 AM PDT 7:42 PM PDT
Civil Twilight 5:44 AM PDT 8:15 PM PDT
Nautical Twilight 5:05 AM PDT 8:54 PM PDT
Astronomical Twilight 4:22 AM PDT 9:37 PM PDT
Moon 6:13 AM PDT (4/10) 8:28 PM PDT (4/10)
Length of Visible Light 14h 30m
Length of Day
13h 25m
New Moon, 0% of the Moon is Illuminated
Apr 10
New Moon
Apr 18
First Quarter
Apr 25
Full
May 2
Last Quarter
May 9
New

Hourly Weather History & Observations

Time (PDT) Temp. Windchill Dew Point Humidity Pressure Visibility Wind Dir Wind Speed Gust Speed Precip Events Conditions
12:53 AM 51.1 °F - 37.0 °F 59% 30.13 in 10.0 mi SSW 8.1 mph - N/A   Overcast
1:53 AM 51.1 °F - 36.0 °F 56% 30.10 in 10.0 mi South 10.4 mph - N/A   Partly Cloudy
2:53 AM 50.0 °F - 36.0 °F 59% 30.08 in 10.0 mi South 6.9 mph - N/A   Partly Cloudy
3:53 AM 48.0 °F - 36.0 °F 63% 30.06 in 10.0 mi SSW 5.8 mph - N/A   Clear
4:53 AM 48.9 °F - 36.0 °F 61% 30.05 in 10.0 mi South 6.9 mph - N/A   Clear
5:53 AM 46.0 °F 41.9 °F 36.0 °F 68% 30.01 in 10.0 mi SSW 8.1 mph - N/A   Partly Cloudy
6:53 AM 46.0 °F 41.4 °F 36.0 °F 68% 29.97 in 10.0 mi SSW 9.2 mph - N/A   Partly Cloudy
7:53 AM 46.9 °F - 36.0 °F 66% 29.96 in 10.0 mi SSW 8.1 mph - N/A   Scattered Clouds
8:53 AM 50.0 °F - 37.0 °F 61% 29.92 in 10.0 mi South 11.5 mph - N/A   Overcast
10:53 AM 54.0 °F - 37.9 °F 55% 29.84 in 10.0 mi South 21.9 mph 29.9 mph 0.00 in Rain Light Rain
11:53 AM 53.1 °F - 37.9 °F 57% 29.83 in 10.0 mi South 16.1 mph 26.5 mph 0.00 in   Overcast
12:53 PM 54.0 °F - 41.0 °F 62% 29.81 in 10.0 mi South 13.8 mph 18.4 mph 0.00 in Rain Light Rain
1:53 PM 60.1 °F - 43.0 °F 53% 29.78 in 10.0 mi SSE 12.7 mph - 0.00 in   Clear
2:53 PM 64.0 °F - 37.9 °F 38% 29.77 in 10.0 mi Variable 4.6 mph 17.3 mph N/A   Mostly Cloudy
3:53 PM 63.0 °F - 28.9 °F 28% 29.78 in 10.0 mi WNW 27.6 mph 39.1 mph N/A   Mostly Cloudy
4:53 PM 66.0 °F - 28.9 °F 25% 29.79 in 10.0 mi WNW 19.6 mph 28.8 mph N/A   Mostly Cloudy
5:35 PM 64.4 °F - 37.4 °F 37% 29.83 in 10.0 mi North 13.8 mph - N/A   Mostly Cloudy
5:53 PM 64.0 °F - 35.1 °F 34% 29.85 in 10.0 mi NNE 10.4 mph - N/A   Mostly Cloudy
6:53 PM 60.1 °F - 26.1 °F 27% 29.89 in 10.0 mi NNW 8.1 mph 18.4 mph N/A   Scattered Clouds
7:53 PM 51.1 °F - 28.0 °F 41% 29.94 in 10.0 mi NNW 5.8 mph - N/A   Clear
8:53 PM 52.0 °F - 26.1 °F 37% 29.98 in 10.0 mi NW 11.5 mph - N/A   Clear
9:53 PM 46.9 °F - 26.1 °F 44% 30.02 in 10.0 mi North 8.1 mph - N/A   Clear
10:53 PM 46.0 °F - 26.1 °F 46% 30.04 in 10.0 mi Calm Calm - N/A   Clear
11:53 PM 39.0 °F - 27.0 °F 62% 30.05 in 10.0 mi Calm Calm - N/A   Clear